Regional Weather Roundup
Issued by NWS

Home | Current Version | Previous Version | Graphics & Text | Print | Product List | Glossary On
Versions: 1 2 3 4 5 6 7 8 9 10 11 12 13 14 15 16 17 18 19 20 21 22 23 24 25 26 27 28 29 30 31 32 33 34 35 36 37 38 39 40 41 42 43 44 45 46 47 48 49 50
000
ASUS45 KCYS 301410
RWRWY

WYOMING REGIONAL WEATHER ROUNDUP
NATIONAL WEATHER SERVICE CHEYENNE WY
800 AM MDT SAT MAY 30 2015

NOTE:  "FAIR" INDICATES FEW OR NO CLOUDS BELOW 12,000 FEET
WITH NO SIGNIFICANT WEATHER AND/OR OBSTRUCTIONS TO VISIBILITY.

WYZ001-301500-
YELLOWSTONE NATIONAL PARK

CITY           SKY/WX    TMP DP  RH WIND       PRES   REMARKS
LK YELLOWSTONE   N/A     43  39  86 CALM      30.29F
W YELLOWSTONE  NOT AVBL

$$
WYZ002>013-054>058-071-098>099-301500-
NORTHERN WYOMING

CITY           SKY/WX    TMP DP  RH WIND       PRES   REMARKS
JACKSON        SUNNY     46  43  87 CALM      30.25S
CODY           FAIR      55  48  76 CALM      30.14S
GREYBULL       FAIR      56  46  69 SE3       30.12F
WORLAND        FAIR      56  47  71 SW3       30.13S
SHERIDAN       PTSUNNY   47  44  90 NW3       30.13F
BUFFALO        FAIR      49  45  86 E3        30.15S
GILLETTE       CLOUDY    46  42  86 S21G29    30.18F
HULETT         FAIR      48  41  76 S5        30.23F
NEWCASTLE      FAIR      46  37  71 SE14      30.27S

$$
WYZ014>020-022>026-101>103-301500-
CENTRAL WYOMING

CITY           SKY/WX    TMP DP  RH WIND       PRES   REMARKS
BIG PINEY      FAIR      46  42  86 VRB3      30.30S
PINEDALE       FAIR      45  43  93 W5        30.31R
DUBOIS         FAIR      46  39  76 NW9       30.25S
LANDER         FAIR      49  45  86 CALM      30.21S
RIVERTON       FAIR      50  46  86 W7        30.22S
CASPER         FAIR      45  43  93 E3        30.22S FOG
DOUGLAS        CLOUDY    45  44  97 SE15      30.24S

$$
WYZ021-027>030-104>119-301500-
SOUTHERN WYOMING

CITY           SKY/WX    TMP DP  RH WIND       PRES   REMARKS
EVANSTON       FAIR      51  38  60 CALM      30.27R
KEMMERER       FAIR      48  41  76 N6        30.29S
FORT BRIDGER   SUNNY     48  45  87 CALM      30.31R
ROCK SPRINGS   FAIR      49  40  71 S5        30.28R
DIXON          FAIR      48  38  68 E5        30.33R
RAWLINS        FAIR      47  41  80 CALM      30.30S
SARATOGA       FAIR      48  37  66 SE14G20   30.31F
LARAMIE        FAIR      44  39  82 S7        30.31F
CHEYENNE       FAIR      49  44  83 SW9       30.29S
TORRINGTON     CLOUDY    49  46  90 SE10      30.26F
PINE BLUFFS    PTSUNNY   48  45  87 SW7       30.30S

$$


USA.gov is the U.S. government's official web portal to all federal, state and local government web resources and services.